This is the latest recevied weather packets stored in our database for station/object M0SDM-10. If no packets are shown the sender has not sent any weather packets the latest 10 day(s).
| Time | Temp. | Humidity | Pressure | Rain* | Wind** | Luminosity | Snow |
|---|---|---|---|---|---|---|---|
| 1777413434 | 12.22° C | 65% | 1018 hPa | - | - | - | - |
| 1777411634 | 12.78° C | 64% | 1017.9 hPa | - | - | - | - |
| 1777409834 | 12.78° C | 63% | 1017.9 hPa | - | - | - | - |
| 1777408034 | 13.33° C | 63% | 1017.7 hPa | - | - | - | - |
| 1777406234 | 13.33° C | 62% | 1017.6 hPa | - | - | - | - |
| 1777404434 | 13.89° C | 61% | 1017.3 hPa | - | - | - | - |
| 1777402634 | 13.89° C | 61% | 1017.1 hPa | - | - | - | - |
| 1777400834 | 13.89° C | 60% | 1017 hPa | - | - | - | - |
| 1777399033 | 14.44° C | 61% | 1016.8 hPa | - | - | - | - |
| 1777397233 | 14.44° C | 61% | 1016.8 hPa | - | - | - | - |
| 1777395433 | 14.44° C | 61% | 1016.9 hPa | - | - | - | - |
| 1777393633 | 14.44° C | 61% | 1016.6 hPa | - | - | - | - |
| 1777391833 | 14.44° C | 60% | 1016.6 hPa | - | - | - | - |
| 1777390033 | 13.89° C | 62% | 1016.7 hPa | - | - | - | - |
| 1777388233 | 13.89° C | 62% | 1016.6 hPa | - | - | - | - |
| 1777386432 | 13.33° C | 63% | 1016.7 hPa | - | - | - | - |
| 1777384632 | 13.33° C | 64% | 1017 hPa | - | - | - | - |
| 1777382832 | 13.33° C | 64% | 1017.3 hPa | - | - | - | - |
| 1777381032 | 12.78° C | 65% | 1017.4 hPa | - | - | - | - |
| 1777379232 | 12.78° C | 66% | 1017.6 hPa | - | - | - | - |
| 1777377432 | 12.78° C | 68% | 1017.9 hPa | - | - | - | - |
| 1777375632 | 12.22° C | 68% | 1017.8 hPa | - | - | - | - |
| 1777373831 | 12.22° C | 68% | 1017.9 hPa | - | - | - | - |
| 1777372031 | 12.22° C | 68% | 1017.8 hPa | - | - | - | - |
| 1777370231 | 12.22° C | 69% | 1017.7 hPa | - | - | - | - |
* Rain since midnight (hover to see other rain measurements)
** Current wind speed in m/s (hover to see current wind gust speed)